Location: Staunton
(38.1490°N, 79.0720°W)
Time: 14:47:14
(UTC-04:00)

ISS - Pass Details

Date: 19 July 2017
Orbit: 400 x 408 km, 51.6° (Epoch: 21 July)

Event Time Altitude Azimuth Distance (km) Brightness Sun altitude
Rises 05:32:21 0° 318° (NW) 2,316 -0.1 -7.0°
Reaches altitude 10° 05:34:43 10° 333° (NNW) 1,456 -0.9 -6.6°
Maximum altitude 05:37:22 23° 28° (NNE) 917 -1.1 -6.1°
Drops below altitude 10° 05:40:02 10° 83° (E) 1,455 0.2 -5.7°
Sets 05:42:24 0° 99° (E) 2,313 0.9 -5.3°
